Location: Unspecified
(51.6250°N, 0.8230°E)
Time: 06:02:35
(UTC+01:00)

Okean 3 - Pass Details

Date: 11 August 2020
Orbit: 577 x 600 km, 82.5° (Epoch: 21 September)

Event Time Altitude Azimuth Distance (km) Brightness Sun altitude
Rises 22:29:21 0° 354° (N) 2,852 8.0 -15.7°
Reaches altitude 10° 22:31:40 10° 1° (N) 1,948 6.9 -15.9°
Maximum altitude 22:35:46 42° 73° (ENE) 871 4.1 -16.3°
Enters shadow 22:37:22 29° 121° (ESE) 1,102 4.3 -16.4°
